Location: Asheville, NC
(35.6000°N, 82.5500°W)
Time: 05:42:18
(UTC-04:00)

SRMSAT - Pass Details

Date: 09 January 2018
Orbit: 849 x 866 km, 20.0° (Epoch: 20 April)

Event Time Altitude Azimuth Distance (km) Brightness Sun altitude
Rises 20:10:07 0° 236° (SW) 3,418 ? -30.9°
Reaches altitude 10° 20:13:36 10° 217° (SW) 2,479 ? -31.7°
Enters shadow 20:16:43 17° 185° (S) 2,039 ? -32.3°
